SCP
5 5 5 5 4 4 4 3 3 3 3 3 3 3 2 2 1 1 1 1 1 1 1 1 1 1 1 1 1 1 0 0 0 0 0 0 0 0 0 0 0 0 0
5 5 5 5 4 4 3 3 3 3 3 3 3 3 2 2 1 1 1 1 1 1 1 1 1 1 1 1 1 1 0 0 0 0 0 0 0 0 0 0 0 0 0
4 4 5 5 5 4 3 3 3 3 3 2 2 2 2 2 1 2 2 2 2 1 1 1 1 1 1 1 1 1 1 1 0 0 0 0 0 0 0 0 0 0 0
3 3 4 4 5 4 4 3 3 3 3 2 2 2 2 1 1 2 2 2 2 2 1 1 1 1 1 1 1 1 1 1 1 1 0 0 0 0 0 0 0 0 0
2 3 3 4 4 4 4 3 3 3 3 2 2 2 2 1 1 1 2 2 3 2 2 1 1 1 2 2 2 1 1 1 1 1 1 1 0 0 0 0 0 0 0
2 2 3 3 3 4 4 3 3 3 2 2 2 2 2 2 1 1 2 2 2 2 2 1 1 2 2 2 2 2 2 1 1 1 1 1 1 0 0 0 0 0 1
2 2 2 3 3 3 3 3 2 2 2 2 2 2 2 2 2 1 1 2 2 2 2 2 2 2 2 2 2 2 2 2 2 1 1 1 1 1 0 0 0 1 1
1 1 2 2 2 2 2 2 2 2 2 2 2 2 2 2 2 1 1 2 1 1 2 2 2 2 2 2 2 3 3 2 2 2 1 1 1 1 1 1 1 1 1
1 1 1 1 1 1 2 2 2 2 2 2 2 2 3 3 2 2 2 2 2 1 1 2 2 2 2 2 3 3 3 3 3 2 2 2 1 1 1 1 1 1 1
1 1 1 1 1 1 2 2 2 2 2 2 2 2 2 2 2 2 2 2 2 1 1 1 1 1 1 2 2 3 3 3 3 3 2 2 2 2 1 1 1 1 1
1 1 1 1 1 1 1 2 2 2 2 2 2 2 2 2 1 1 2 2 1 1 1 1 1 1 1 1 2 2 3 3 3 2 2 2 2 2 1 1 1 1 1
1 1 1 1 1 1 1 1 1 1 2 2 2 2 2 1 1 1 1 1 1 1 1 1 1 1 1 1 1 2 2 2 2 2 2 2 2 2 2 1 1 1 1
1 1 1 1 1 1 1 1 1 1 1 2 2 2 2 1 1 1 1 1 2 2 1 1 1 1 1 1 1 1 2 2 2 2 2 1 1 1 1 1 1 1 1
1 1 2 2 1 1 1 1 1 1 1 1 1 1 1 1 1 1 1 2 2 2 2 2 1 1 1 1 1 1 2 2 2 2 1 1 1 1 1 1 1 1 1
1 1 2 2 2 1 1 1 1 1 1 1 1 1 1 1 1 2 2 2 2 2 2 2 2 1 1 1 1 1 2 2 2 1 1 1 1 1 0 0 1 1 1
1 1 1 2 2 2 1 1 1 1 1 2 2 2 2 2 2 2 3 3 3 3 2 2 2 2 1 1 1 1 1 2 2 1 1 1 1 1 1 0 0 1 1
1 1 1 2 2 2 2 1 1 1 2 2 2 2 2 2 3 3 4 4 4 3 3 3 3 2 2 1 1 1 1 2 1 1 1 1 1 1 1 0 0 0 0
2 2 2 2 2 2 2 2 2 2 2 2 2 2 3 3 4 4 5 5 4 4 4 4 4 3 2 1 0 0 1 1 1 1 1 1 1 1 0 0 0 0 0
3 3 3 2 2 2 2 2 2 2 2 2 2 3 3 4 5 5 5 5 6 6 5 5 5 3 2 0 0 0 1 1 1 1 1 1 0 0 0 0 0 0 0
2 2 3 3 2 2 2 2 2 2 2 2 3 3 4 4 5 6 6 6 7 7 5 4 3 2 1 0 0 0 1 1 1 0 0 0 0 0 0 0 0 0 0
2 2 2 2 2 2 2 2 2 2 2 2 2 3 3 3 4 5 6 6 6 5 3 2 1 1 0 0 0 0 0 1 0 0 0 0 0 0 0 0 0 0 0
2 2 2 2 2 2 3 2 2 2 2 2 2 2 2 2 3 3 4 5 4 3 2 1 1 0 0 0 0 0 0 0 0 0 0 0 0 0 0 0 0 0 0
2 2 2 2 2 2 3 3 3 2 2 2 2 1 1 2 2 3 3 3 3 2 1 0 0 0 0 0 0 0 0 0 0 0 0 0 0 0 0 0 0 0 0
2 2 2 2 2 2 2 3 3 2 2 2 2 2 2 2 2 2 2 2 2 1 0 0 0 0 0 0 0 0 0 0 0 0 0 0 0 0 0 0 0 0 0
2 1 1 2 2 2 2 2 3 2 2 2 2 2 1 1 1 1 1 1 1 0 0 0 0 0 0 0 0 0 0 0 0 0 0 0 0 0 0 0 0 0 0
1 1 1 2 2 2 2 2 2 2 2 2 1 1 1 1 1 0 0 0 0 0 0 0 0 0 0 0 0 0 0 0 0 0 0 0 0 0 0 0 0 0 0
Wind_Speed
9 10 11 12 12 12 12 13 13 12 10 9 9 8 8 7 6 6 7 8 7 7 6 5 6 6 5 5 6 4 5 4 3 3 3 3 4 3 3 4 3 4 4
10 11 12 12 12 13 13 13 13 13 12 9 8 7 7 6 6 6 7 8 8 7 7 6 6 7 5 5 5 5 4 4 4 3 3 4 4 5 4 4 4 4 4
10 11 12 12 12 12 13 12 13 13 13 11 8 7 6 5 6 7 7 8 8 8 7 8 7 6 7 6 7 7 6 4 4 4 3 3 3 4 5 4 4 3 3
10 11 12 12 12 12 12 12 13 13 12 12 11 13 10 9 9 7 7 8 9 9 9 8 7 7 6 6 7 7 6 5 4 4 3 3 3 2 3 5 5 5 4
9 10 11 11 11 11 11 11 12 13 13 13 13 12 11 9 6 7 8 8 8 9 9 9 8 7 7 7 6 6 7 6 5 4 4 4 3 4 3 2 3 5 4
7 9 9 10 10 10 10 11 12 12 13 14 13 13 12 10 9 9 9 8 7 8 10 9 8 8 7 7 7 7 8 6 5 4 4 4 4 4 3 2 3 3 3
8 9 10 10 10 10 10 11 11 12 13 14 13 13 12 11 11 10 9 9 7 7 9 9 8 7 7 7 7 7 6 6 6 6 5 4 3 3 3 3 2 2 3
8 9 9 9 9 10 10 10 11 11 12 13 12 12 11 9 8 10 8 9 7 7 8 9 9 8 8 8 7 7 7 5 6 6 4 3 3 3 3 3 3 3 3
7 8 9 9 9 9 9 10 10 10 10 11 11 10 11 9 8 8 8 7 6 6 9 9 8 8 8 7 7 6 6 6 6 6 6 5 3 3 3 3 3 4 3
7 8 8 9 8 8 8 9 9 9 9 9 9 8 9 9 8 8 8 8 8 7 8 9 9 8 8 8 7 6 6 6 5 4 4 4 3 2 3 3 3 4 5
8 8 8 8 8 8 8 8 8 8 8 8 8 8 8 8 8 8 8 8 8 8 9 9 9 9 9 8 7 7 7 7 6 5 5 5 3 3 3 3 3 3 4
8 8 9 8 8 8 8 8 8 8 8 8 8 7 7 7 7 7 8 8 8 8 9 9 9 9 9 8 8 8 7 7 7 6 5 5 4 4 3 3 3 2 3
8 8 8 8 7 7 7 7 8 8 8 8 8 8 8 7 7 7 7 7 7 8 8 9 9 8 8 8 8 7 6 6 5 5 5 5 5 4 2 2 2 2 2
8 8 7 7 6 6 7 7 7 7 8 8 8 8 8 8 8 7 7 7 7 8 8 7 7 7 8 8 7 7 6 5 4 3 3 3 3 3 3 2 1 1 1
8 8 7 7 7 7 6 6 7 7 7 8 8 8 8 7 7 7 7 7 7 8 8 8 7 7 6 7 7 7 7 6 5 5 4 4 6 7 4 2 1 0 1
7 7 7 7 7 7 7 7 6 7 7 7 7 7 7 8 7 7 7 7 7 7 8 8 8 7 5 7 8 7 7 6 6 6 6 7 8 11 12 13 12 9 4
6 6 6 6 6 7 7 7 7 7 8 7 7 7 7 8 8 8 7 7 7 7 7 7 7 7 7 10 9 7 6 6 6 6 5 5 7 7 8 11 12 14 14
5 5 5 5 6 6 7 7 7 7 7 7 7 7 8 8 8 7 7 7 7 7 7 7 7 7 9 11 11 10 7 7 7 6 6 6 6 6 6 8 9 10 10
3 4 4 5 6 6 7 7 7 7 7 7 7 7 7 8 8 8 8 7 7 7 7 7 8 9 9 10 11 10 8 9 10 8 8 8 9 9 6 8 9 9 8
4 3 3 5 5 6 7 8 8 7 7 6 6 6 6 8 9 9 9 8 7 8 8 9 8 9 9 9 9 8 8 10 9 9 10 13 11 9 7 7 7 7 6
4 4 4 4 4 5 6 7 7 7 6 7 7 7 7 8 9 9 8 9 9 9 9 11 10 10 10 10 9 7 6 9 9 8 8 9 12 12 10 8 7 6 3
5 4 4 4 4 4 6 6 6 6 7 8 8 8 7 7 8 9 9 9 10 11 11 11 11 9 9 10 11 12 11 9 10 9 8 9 12 11 10 8 6 2 2
5 4 5 6 5 4 5 7 6 7 8 9 9 8 9 7 8 8 9 9 8 8 9 9 9 8 8 10 14 15 15 13 10 10 13 11 10 9 8 7 2 1 1
5 5 5 6 5 5 5 6 7 8 10 10 10 9 9 9 9 7 6 7 7 8 8 9 9 9 8 7 7 9 10 13 12 10 11 9 6 5 5 4 2 3 5
5 5 6 6 6 6 7 7 7 10 11 11 11 11 10 11 10 10 9 8 8 6 8 8 8 9 9 8 8 7 7 6 7 7 6 5 4 4 4 4 4 3 3
5 6 7 8 7 7 7 7 7 9 11 11 10 9 9 9 10 11 13 19 15 18 16 13 11 11 12 13 13 13 12 10 5 3 5 5 4 4 4 3 3 4 4
Wind_Direction
173 171 173 174 174 176 179 181 183 181 179 177 180 181 181 184 186 190 184 189 193 189 204 201 181 202 191 189 184 189 181 192 180 191 179 183 202 201 190 212 211 194 198
168 167 171 174 176 179 183 183 184 181 183 183 184 183 177 189 186 191 188 196 196 196 200 208 200 195 186 189 193 198 208 185 191 221 204 190 187 203 194 189 200 205 195
176 172 174 178 181 184 186 186 184 183 186 182 177 172 169 180 186 190 193 197 198 202 210 203 211 197 203 188 194 197 207 200 194 230 247 231 197 174 174 197 193 198 212
179 175 178 182 185 185 186 186 184 183 184 184 187 185 187 192 195 190 189 191 200 203 203 205 207 206 211 189 198 199 207 210 205 196 241 297 350 267 170 186 182 184 201
179 177 180 184 186 184 185 186 184 185 186 191 192 193 196 196 187 190 186 192 194 202 203 202 201 204 211 200 205 187 210 210 220 209 200 205 214 253 263 181 179 183 186
170 171 174 178 182 182 183 184 185 189 188 192 195 198 199 194 188 195 192 195 192 198 200 201 200 204 205 197 199 200 201 219 224 236 223 214 217 230 236 222 212 189 163
168 169 173 176 179 182 184 183 184 187 187 190 194 197 198 195 195 197 197 197 194 195 194 198 197 200 201 200 199 199 206 203 208 221 227 234 244 252 250 250 234 215 170
167 170 174 175 177 181 182 183 184 184 184 187 191 194 194 196 199 201 199 199 202 198 186 194 195 197 199 201 197 200 197 195 203 209 214 229 231 240 248 258 261 246 215
165 167 167 168 171 176 180 182 183 183 183 186 186 191 194 198 199 199 201 200 199 191 186 190 194 195 195 196 192 202 194 189 202 199 197 224 212 231 249 262 273 277 269
164 159 162 163 164 167 168 175 180 182 182 182 184 187 192 195 198 202 202 199 196 194 188 191 189 188 187 187 195 192 192 197 203 208 202 220 222 217 228 242 255 272 283
158 155 154 157 161 163 166 171 174 178 179 181 183 184 188 192 198 200 200 196 194 191 191 192 188 187 186 184 191 200 188 197 196 196 195 202 230 227 226 227 239 245 258
154 152 153 158 166 168 170 174 176 181 180 180 180 183 187 189 195 198 195 193 190 190 191 189 186 187 187 186 189 196 191 194 195 195 192 197 197 206 242 243 244 251 273
156 153 153 162 170 171 173 174 177 181 179 177 181 184 187 188 192 192 184 184 183 185 186 183 183 183 183 185 187 188 188 188 189 192 193 199 200 198 205 240 247 245 238
158 160 159 161 165 166 167 174 178 176 176 176 179 185 186 186 185 182 178 179 178 176 174 174 175 177 180 181 180 179 173 164 161 166 166 170 176 177 188 196 224 259 257
161 161 163 162 166 166 168 174 177 175 175 177 181 182 180 178 176 173 173 171 170 169 166 165 164 164 171 175 170 164 159 154 150 136 121 104 87 68 56 49 82 177 263
162 162 163 167 170 171 174 175 174 173 174 179 179 172 169 166 165 165 163 158 157 156 153 155 154 156 155 125 133 150 146 144 141 131 121 111 101 90 78 67 57 44 32
159 164 168 170 169 173 174 176 175 172 172 172 168 164 163 160 159 154 150 150 148 144 141 143 141 135 118 115 122 129 140 136 127 125 126 118 107 110 107 95 86 69 56
155 160 165 164 167 167 168 170 170 168 168 167 164 161 158 153 148 142 139 139 135 132 130 128 126 121 111 110 113 115 120 110 104 103 109 110 105 97 103 101 88 74 59
126 143 156 156 159 162 162 159 157 158 157 158 158 159 157 151 143 137 135 132 127 124 121 117 116 114 108 107 116 121 117 107 100 94 89 96 95 76 82 101 99 93 89
90 115 135 141 149 158 159 157 155 154 152 150 148 145 145 144 139 134 131 125 119 116 113 108 105 107 105 99 105 116 119 113 107 95 83 74 80 70 60 92 97 93 83
85 99 116 128 138 150 156 155 147 144 139 134 129 126 126 128 127 124 123 122 117 112 108 102 94 92 93 92 87 91 117 119 114 105 96 86 78 71 61 65 77 75 65
85 95 104 103 109 129 141 138 134 130 127 124 120 117 116 118 120 120 119 119 120 115 108 102 95 87 82 81 81 79 80 95 105 102 99 96 89 79 71 72 73 42 292
87 91 103 99 94 106 128 132 132 128 123 117 113 111 109 105 111 116 119 118 119 117 115 112 106 100 94 87 83 83 83 85 94 96 100 104 107 106 94 90 76 301 16
95 99 100 97 95 95 104 113 121 120 118 115 110 106 105 99 91 90 98 109 117 121 121 117 113 110 105 104 105 104 101 103 105 107 111 112 105 107 109 127 104 57 38
92 97 99 97 93 96 99 106 114 118 114 111 107 103 99 98 90 78 64 75 70 88 111 114 116 116 111 94 88 102 104 106 108 123 129 126 118 100 85 74 60 46 44
98 98 95 94 91 92 92 98 108 116 116 112 108 106 106 103 102 98 82 61 70 71 73 80 94 90 96 102 94 91 92 93 104 119 107 97 87 78 70 62 59 47 32